Lapse_Rate
6.1 5.8 5.9 7.0 6.9 6.8 6.2 5.8 5.8 5.6 6.0 5.9 6.1 6.7 7.1 6.7 6.4 6.5 7.0 7.1 7.0 6.8 7.3 7.6 7.5 7.4 7.3 7.5 7.5 7.8 7.9 7.5 7.6 7.8 7.6 7.5 7.4 7.6 7.6 7.6 7.3 7.3 7.2 7.3
5.7 6.2 6.4 6.2 6.2 5.9 5.7 5.3 5.6 6.0 5.8 6.1 5.9 6.0 6.9 6.3 6.5 6.6 6.6 6.9 7.1 7.1 7.1 7.5 7.6 7.5 7.4 7.7 7.8 7.7 7.9 7.9 7.8 7.7 7.6 7.5 7.5 7.5 7.5 7.2 7.1 7.1 7.2 7.3
5.9 6.4 6.1 5.9 5.7 5.4 5.1 5.5 6.1 5.8 5.9 5.7 5.4 5.6 6.7 7.2 6.3 6.5 6.8 7.0 7.4 7.5 7.3 7.3 7.4 7.5 7.6 7.8 8.0 8.3 8.4 8.2 7.9 7.8 7.6 7.5 7.3 7.3 7.2 7.6 7.6 7.3 7.1 7.2
5.3 4.9 5.5 5.6 5.3 5.2 5.0 6.4 5.9 5.4 5.1 5.1 5.8 5.6 7.0 8.0 7.2 6.9 7.0 7.4 7.7 7.7 7.4 7.4 7.5 7.5 7.6 7.9 8.1 8.4 8.4 8.3 7.9 7.9 7.8 7.5 7.3 7.3 7.6 7.7 7.4 7.1 7.0 6.8
5.8 6.2 6.0 5.9 6.6 6.0 5.6 5.5 5.8 5.8 5.7 5.8 5.5 5.4 6.2 7.9 7.2 7.1 7.3 7.6 7.9 7.9 7.5 7.3 7.1 7.5 7.6 7.7 7.9 8.1 8.2 8.2 7.9 8.1 7.5 7.1 7.1 7.3 7.2 6.9 6.9 7.0 6.9 6.8
6.2 6.2 5.8 5.6 5.5 5.7 5.9 5.7 5.7 6.0 6.0 5.6 5.6 5.6 6.0 7.0 8.5 7.7 6.5 7.0 7.3 7.6 7.4 7.6 7.3 7.3 7.1 7.2 7.4 7.6 7.7 8.0 8.1 8.1 7.5 6.9 7.2 7.1 6.8 6.8 6.8 7.2 6.9 6.6
6.4 6.0 6.3 6.2 6.0 6.2 6.0 6.0 5.7 5.9 5.8 5.9 6.2 6.4 6.3 8.3 8.2 7.3 6.6 6.5 6.5 6.9 7.5 7.9 7.6 7.5 7.2 7.1 7.2 7.3 7.7 7.8 7.9 7.8 7.2 6.2 6.5 6.8 6.4 6.3 6.2 6.4 6.5 6.6
5.7 5.5 6.5 6.3 6.5 6.7 6.4 6.5 6.4 6.1 6.2 6.4 7.0 6.5 6.5 6.7 6.7 6.7 6.6 6.3 6.0 6.1 6.7 7.4 7.9 7.8 7.6 7.4 7.4 7.6 7.8 7.8 7.6 7.4 7.2 6.0 6.4 6.2 5.9 6.0 5.9 5.9 5.9 6.1
5.4 5.7 6.2 6.3 6.5 6.5 6.5 6.2 6.3 6.8 6.8 6.9 6.7 6.7 6.9 6.9 6.8 6.7 6.5 6.4 6.3 6.1 6.3 6.9 7.6 7.8 7.7 7.7 7.8 7.9 7.9 7.9 7.7 7.2 7.2 5.9 5.6 5.5 5.8 5.8 5.4 5.6 5.6 5.1
6.2 6.2 5.9 6.1 6.6 6.9 7.4 7.4 7.0 6.7 6.8 6.5 6.8 6.9 7.0 7.2 6.9 6.9 6.7 6.6 5.9 5.9 6.2 6.9 7.4 7.9 7.8 8.0 8.1 8.2 8.2 8.0 7.8 7.2 6.7 6.0 5.7 5.8 5.0 5.2 4.9 5.2 5.0 4.3
6.2 6.6 6.8 6.9 6.9 7.2 7.4 7.5 7.2 6.9 6.1 6.8 6.9 7.1 5.8 6.3 5.8 5.9 5.7 6.2 6.4 6.1 6.6 7.2 7.8 8.0 8.1 8.3 8.3 8.5 8.4 8.4 7.7 6.4 6.7 6.4 6.2 5.6 5.6 4.1 4.7 4.6 4.5 4.1
7.0 6.6 6.5 6.7 7.2 7.0 6.0 6.5 5.4 5.0 5.6 4.8 5.3 5.8 5.3 5.0 5.5 5.7 5.6 6.1 6.3 6.1 6.2 7.1 7.5 7.5 7.8 7.6 7.0 7.0 7.2 6.9 6.6 6.5 6.3 5.0 5.1 5.4 5.9 5.3 4.6 4.6 4.4 4.5
6.7 6.3 6.2 7.1 6.9 6.6 5.5 5.4 5.8 5.4 5.4 5.4 4.8 5.0 5.5 5.1 5.1 5.0 5.3 5.4 5.6 5.4 6.0 6.8 6.8 7.0 7.1 6.8 6.9 6.7 6.3 6.2 6.3 6.4 5.6 5.5 6.1 6.0 5.5 4.6 3.7 4.3 4.5 4.8
7.0 6.8 6.9 6.7 6.8 6.9 6.1 6.0 5.6 5.9 5.8 5.5 5.3 5.7 6.7 6.4 6.3 5.5 6.0 6.4 5.6 5.7 6.2 5.9 6.7 7.0 7.1 6.5 6.7 6.6 6.1 5.9 5.8 5.6 5.4 5.4 6.0 5.9 5.5 5.0 3.7 3.9 4.5 4.2
7.2 7.2 7.2 7.2 7.2 7.1 7.1 7.2 7.0 6.8 6.7 6.2 6.3 6.1 6.4 7.2 6.4 6.9 7.0 7.5 7.1 6.2 5.9 6.0 6.4 6.9 6.6 6.0 6.4 6.4 6.2 5.8 5.6 5.5 5.3 5.6 6.1 5.6 5.4 4.5 3.9 4.4 4.1 4.2
7.2 7.2 7.2 6.9 7.9 7.8 7.3 7.7 7.9 8.1 8.2 7.7 7.1 6.1 7.0 6.4 6.3 6.6 7.2 7.4 7.6 7.8 7.1 6.9 6.3 6.2 6.9 6.5 6.4 6.6 6.0 6.1 5.9 5.5 5.9 5.7 5.4 5.1 5.1 5.1 4.4 4.1 4.2 4.5
7.0 7.1 7.1 6.8 7.1 7.3 7.0 8.7 8.4 8.0 8.2 8.0 7.4 7.1 6.6 6.6 7.0 6.6 7.1 7.3 7.5 7.3 7.5 6.7 7.3 7.3 7.0 6.7 6.8 6.8 6.7 6.5 6.1 5.9 5.8 5.7 5.4 5.4 5.0 4.9 4.1 4.0 4.5 4.9
7.1 6.9 6.7 6.5 6.8 5.7 7.7 8.1 7.9 7.6 8.0 7.8 7.9 7.5 6.9 7.0 7.9 7.8 7.7 7.7 7.7 7.6 7.4 7.3 7.4 7.0 7.3 7.2 6.8 6.5 6.8 7.0 6.6 6.2 6.0 5.9 5.7 5.7 5.5 5.1 4.2 4.2 4.7 4.9
7.3 6.9 6.4 6.8 7.1 7.3 8.0 7.8 7.6 7.3 7.4 7.6 7.6 7.8 7.6 7.3 7.8 7.7 7.4 7.6 7.3 7.1 7.6 7.4 7.1 7.1 7.0 7.1 7.3 7.0 7.1 7.2 6.8 6.5 6.0 5.8 5.7 5.5 5.7 5.5 4.5 4.4 5.0 5.5
7.3 7.1 6.6 6.7 7.1 7.2 7.9 8.0 7.9 7.9 7.6 7.5 7.3 7.5 7.4 7.6 7.2 7.3 7.4 7.4 7.1 7.0 6.9 7.0 7.2 7.4 7.7 7.6 7.6 7.5 7.0 6.8 6.6 6.4 6.2 5.8 5.8 5.8 5.6 5.6 5.1 4.7 5.1 5.5
7.4 7.5 7.4 7.5 7.1 7.4 7.3 7.3 7.9 8.2 7.5 7.5 7.3 7.1 7.2 7.0 7.0 7.2 6.9 7.0 7.0 6.7 6.4 6.7 6.6 7.4 7.9 7.7 7.6 7.5 7.4 7.2 6.8 6.9 6.8 6.1 6.1 6.0 5.7 5.6 5.1 5.2 5.7 5.7
7.8 7.9 8.1 8.0 8.0 7.3 7.0 7.1 6.9 7.0 6.8 6.8 7.1 6.7 6.5 6.6 6.9 7.0 6.9 6.6 6.9 6.7 6.5 6.5 6.7 7.7 8.0 7.8 7.7 7.6 7.3 7.2 7.2 7.0 6.9 6.2 5.9 6.1 5.9 5.6 5.2 5.5 6.2 6.2
7.9 8.4 8.2 8.1 8.2 7.7 7.3 6.6 6.6 6.9 6.8 7.0 7.0 6.9 6.9 7.1 7.0 6.7 7.3 6.9 6.6 6.6 6.2 6.4 7.2 7.6 7.7 7.7 7.7 7.5 7.3 7.1 7.1 7.2 6.9 6.4 6.0 5.9 5.9 5.6 5.3 5.5 6.1 6.3
8.2 8.3 8.2 7.8 8.5 8.0 7.4 7.4 7.0 6.9 7.0 7.1 7.0 7.0 7.0 7.2 7.1 7.5 7.7 7.3 7.0 6.5 6.6 7.0 7.2 7.5 7.7 7.8 7.8 7.7 7.4 7.2 7.1 7.1 7.0 6.9 6.5 5.8 5.7 5.5 5.3 5.6 5.6 6.2
8.2 8.1 8.4 8.2 8.3 8.1 7.7 7.9 7.2 7.9 7.8 7.4 7.2 7.0 7.2 7.0 7.2 7.6 7.8 7.7 7.3 7.2 7.4 7.3 7.5 7.7 7.7 7.7 7.8 7.5 7.5 7.3 7.4 7.4 7.2 6.9 6.8 6.1 6.1 5.9 5.5 5.5 5.9 6.3
8.5 8.6 8.3 8.3 8.3 7.8 7.7 8.2 7.8 8.0 8.1 7.7 7.4 7.3 7.4 7.2 7.1 7.1 7.2 7.1 7.2 7.1 7.0 7.2 7.5 7.6 7.8 7.7 7.4 7.5 7.5 7.4 7.3 7.5 6.9 6.9 7.2 6.7 5.8 5.9 5.9 5.8 5.9 6.1
Wind_Speed
5 4 11 20 19 15 4 7 12 3 4 7 12 28 28 14 8 12 15 14 9 14 24 15 16 17 17 17 17 21 18 17 14 12 12 10 8 7 4 5 11 12 12 14
5 21 13 9 15 17 18 18 25 19 12 10 8 25 30 17 16 12 16 15 13 9 11 14 17 19 22 22 19 20 20 20 16 12 11 7 9 5 6 6 8 11 11 13
16 9 6 16 14 15 17 25 23 19 2 13 8 23 30 26 14 14 16 17 15 15 14 14 17 22 22 24 24 24 23 21 18 17 10 9 7 6 3 6 5 5 10 10
15 14 22 17 15 11 22 12 21 18 10 10 9 10 27 27 20 15 13 12 16 11 9 14 19 19 23 25 22 23 23 23 19 20 16 19 13 11 5 7 6 6 12 9
14 1 8 22 27 14 27 9 18 14 9 6 22 8 22 27 26 19 13 12 15 13 11 16 20 23 25 20 23 22 21 22 19 20 16 13 11 6 8 7 9 7 5 8
19 10 5 8 6 6 11 12 7 8 7 11 33 17 12 18 14 4 4 8 9 10 11 11 18 21 20 17 17 19 21 22 21 21 20 18 17 15 12 10 9 7 6 5
6 17 24 20 20 20 13 11 5 6 11 15 23 13 20 29 18 21 13 7 8 9 11 11 12 17 18 20 21 20 23 23 22 20 20 21 23 19 18 16 11 11 8 5
9 15 7 5 16 19 12 17 11 21 11 16 8 13 18 14 23 11 5 6 8 9 8 12 12 18 20 23 24 24 23 22 23 19 18 17 18 12 12 14 11 9 8 8
3 10 11 6 3 5 7 14 19 21 25 17 19 22 15 10 4 7 8 9 10 9 10 9 13 18 21 23 24 24 23 21 22 20 16 15 15 15 12 13 12 9 10 7
5 7 9 10 4 12 13 4 3 8 16 28 13 20 17 8 11 14 14 13 14 10 8 10 8 8 12 14 13 14 16 18 17 17 14 12 12 14 9 13 14 14 12 13
8 5 6 8 3 13 8 6 11 8 8 11 20 7 9 15 15 17 18 18 11 11 5 5 9 11 11 11 11 13 14 16 16 15 15 15 12 12 13 7 9 12 12 12
3 4 4 9 20 8 10 4 4 2 7 7 4 2 7 10 15 15 14 18 20 9 9 4 9 12 13 12 12 13 13 15 15 16 16 18 16 17 15 12 13 12 12 13
1 1 5 9 5 4 4 8 5 5 7 2 3 5 5 6 8 10 12 12 12 13 5 1 6 10 11 14 16 16 14 14 14 14 12 12 12 14 12 9 12 13 12 11
6 5 8 7 11 7 10 13 12 5 4 3 8 19 17 8 7 11 10 16 14 9 3 4 5 6 6 10 7 8 14 17 17 16 17 16 16 16 15 13 13 12 12 13
5 6 6 11 13 13 16 19 12 12 13 10 22 19 20 16 9 12 16 19 19 11 7 9 6 7 6 6 7 6 9 11 11 14 14 14 14 15 16 15 14 13 12 11
3 4 3 6 14 12 12 19 23 17 18 15 18 21 19 18 17 13 15 17 18 14 8 9 10 9 10 11 10 9 9 10 12 13 13 14 14 14 15 15 14 14 12 11
4 3 2 6 6 4 6 20 16 12 12 11 11 17 15 17 16 12 8 8 15 19 10 9 13 15 14 14 13 13 13 12 13 13 13 14 14 13 14 14 14 13 13 11
4 3 2 5 6 5 10 6 13 12 7 5 7 11 10 12 16 15 9 7 13 16 12 11 12 11 10 11 12 12 14 13 13 13 12 13 14 14 11 13 12 12 12 12
14 5 3 3 4 8 10 3 4 7 3 7 10 13 16 14 12 8 6 9 11 9 9 9 10 9 10 14 14 14 14 14 14 15 15 15 15 15 14 13 12 11 12 11
6 10 4 3 4 4 1 13 11 13 6 9 11 10 14 12 6 5 16 18 15 6 9 4 7 6 11 11 14 15 15 15 16 16 16 15 16 17 16 13 13 10 9 11
2 1 6 7 7 6 10 17 17 6 6 18 14 12 12 6 5 11 16 14 13 4 5 9 7 8 8 11 14 14 14 15 11 11 13 13 13 15 15 13 10 11 9 11
3 3 3 3 5 6 12 14 7 11 9 11 14 13 13 13 14 13 14 13 12 14 7 5 7 8 9 11 12 11 11 8 12 11 11 11 12 11 12 15 11 12 11 12
4 6 4 7 5 5 5 12 17 12 10 13 15 12 10 15 15 12 10 8 12 7 5 3 3 5 4 7 10 13 9 13 13 14 13 12 11 11 13 14 13 10 10 9
4 4 4 1 7 13 8 12 12 7 12 16 15 14 13 13 15 13 13 10 7 3 2 2 2 4 5 4 5 7 12 12 13 13 13 12 11 11 11 9 10 10 9 9
6 4 4 8 13 9 13 9 6 11 14 14 12 9 13 9 14 12 11 6 3 3 2 2 4 4 5 7 8 9 10 12 11 11 11 10 9 11 9 9 10 10 9 10
6 10 4 9 10 8 13 6 8 14 16 12 10 11 12 4 7 5 5 3 4 4 4 3 4 6 7 9 9 9 11 12 12 11 9 9 9 9 8 8 7 10 13 16
Wind_Direction
195 202 209 203 206 230 207 241 256 184 230 304 273 280 284 287 253 271 272 270 252 225 230 221 205 193 188 184 174 181 171 171 163 167 164 160 165 155 135 146 147 145 144 137
295 242 223 205 217 225 241 259 263 277 244 238 249 272 283 283 270 245 262 260 258 239 232 203 195 190 189 186 183 181 179 172 174 172 171 166 154 160 148 149 139 141 144 140
227 215 213 216 228 226 242 240 260 253 234 257 275 282 286 281 265 262 251 260 261 233 226 202 194 194 190 190 187 186 181 174 173 166 149 131 122 116 129 148 141 140 143 143
254 264 256 260 242 226 254 230 259 265 271 263 165 277 289 278 278 259 252 241 253 247 229 211 202 195 197 201 187 183 178 175 171 164 164 166 171 165 157 156 147 142 139 139
226 83 221 238 247 229 257 227 247 253 242 294 266 234 262 286 277 267 239 243 246 248 227 212 204 200 203 194 190 184 175 174 170 169 162 163 157 146 138 137 134 132 118 138
264 289 280 253 300 241 298 283 264 273 261 250 253 238 280 264 257 208 225 240 246 255 257 224 213 205 202 188 184 181 177 177 170 169 163 168 161 148 146 152 149 148 142 139
278 255 256 255 270 272 269 277 278 253 232 249 267 272 232 258 260 250 264 265 285 283 275 259 202 196 187 182 181 181 177 179 174 172 168 168 159 158 160 159 160 155 149 144
272 292 225 201 209 241 211 224 233 251 249 256 256 234 244 267 266 271 29 333 310 312 296 274 229 196 184 182 182 181 179 174 175 171 169 160 158 158 161 162 156 152 157 147
292 257 311 256 323 226 281 220 242 253 261 270 259 279 287 274 360 352 346 353 338 319 311 293 257 202 186 184 183 180 175 170 173 166 159 160 161 149 160 151 151 147 141 142
323 280 263 301 295 257 230 265 210 221 242 247 232 246 250 3 8 348 358 345 333 319 348 351 349 195 168 166 158 160 169 166 166 159 156 151 146 131 153 157 154 154 152 145
14 319 325 338 333 323 301 262 252 266 253 244 243 244 29 25 7 343 334 330 327 315 341 50 59 65 85 104 124 141 148 154 159 149 148 142 139 147 148 171 147 148 143 135
104 275 309 276 284 336 282 71 294 341 335 283 306 130 80 343 355 332 325 324 322 321 293 113 110 119 122 126 137 143 148 152 152 146 151 161 161 150 147 167 146 143 146 136
179 9 307 308 140 97 357 307 245 275 230 277 3 292 7 276 313 300 291 253 267 250 201 74 122 134 145 151 154 153 151 149 144 144 141 139 158 145 141 151 143 136 142 128
166 204 213 241 268 306 281 298 303 256 269 355 267 277 279 245 288 292 280 262 261 287 182 212 155 137 150 166 144 157 159 156 154 152 153 156 156 148 143 144 139 139 137 134
192 238 238 252 264 278 277 294 291 293 292 271 276 281 285 303 284 263 293 295 293 282 195 186 190 164 153 156 145 141 144 139 145 149 158 154 156 145 140 142 139 136 137 131
196 253 237 282 287 265 278 285 278 268 268 257 254 266 279 282 267 250 247 269 281 288 237 186 178 180 180 171 171 151 144 134 139 142 143 143 142 141 143 142 140 138 134 133
187 214 161 256 265 280 286 258 274 262 260 269 282 289 344 323 298 282 288 284 296 274 262 208 197 197 188 181 174 166 149 142 146 143 144 140 140 143 147 140 144 140 138 140
226 176 172 264 270 216 236 301 283 264 283 9 327 330 335 341 320 309 289 285 308 303 261 202 203 207 185 164 165 153 145 149 148 144 144 140 142 139 141 144 149 145 147 144
219 199 256 211 228 277 288 3 338 322 248 38 329 329 335 326 332 330 359 322 291 305 306 205 197 201 158 159 157 148 147 148 153 154 155 154 148 148 148 152 153 154 146 150
180 203 201 328 263 261 324 335 315 280 250 343 335 324 309 325 326 289 327 326 315 305 321 296 149 143 144 149 151 149 155 158 167 166 164 162 159 153 157 156 155 147 156 133
299 46 197 231 245 273 4 325 312 272 327 316 317 292 295 292 277 301 299 312 308 334 327 325 124 141 143 150 152 155 161 176 161 156 155 158 161 160 149 145 147 133 145 135
225 166 237 262 230 253 1 329 354 309 284 281 306 313 324 317 303 302 290 285 287 313 349 6 298 130 142 152 146 152 167 140 131 138 145 154 156 153 146 143 143 135 146 125
239 189 190 179 232 269 189 229 269 260 287 304 304 294 300 277 290 276 285 279 275 254 310 313 245 129 127 141 156 154 147 140 140 138 145 153 151 151 150 148 143 140 140 150
251 197 210 165 246 262 265 262 270 281 299 298 305 294 288 280 296 287 287 274 255 146 232 232 134 79 123 96 100 123 139 140 143 150 147 150 150 147 156 150 146 147 155 165
198 184 211 257 279 277 267 251 254 287 292 292 291 283 290 277 292 300 285 313 102 102 83 133 130 140 143 129 115 136 133 137 141 144 144 149 154 153 153 152 157 163 172 172
188 227 197 253 257 236 265 272 299 295 297 296 308 319 324 284 306 331 14 15 22 44 41 70 105 126 142 137 132 134 139 147 146 146 153 158 153 153 154 151 138 146 152 160